[[{"header":{"parameterUnit":"m.s-1","parameterCategory":1,"la1":30.2991,"la2":30.254,"lo1":-89.0895,"lo2":-89.0444,"dy":0.0017,"dx":0.0017,"nx":28,"ny":28,"refTime":"2023-08-07T03:00:00:Z","depth":0,"parameterNumber":2,"parameterNumberName":"U-component_of_WINDS"},"data":[0,0,0,0,0,0,0,0,0,0,0,0,0,0,0,0,0,0,0,0,0,0,0,0,0,0,0,0,0,0,0,0,0,0,0,0,0,0,0,0,0,0,0,0,0,0,0,0,0,0,0,0,0,0,0,0,0,0,1.7625,1.7626,0,1.7728,1.7729,1.773,1.7725,1.7724,1.7723,1.7721,1.7833,1.7837,1.7842,0,0,0,0,0,0,0,0,0,0,0,0,0,1.7432,1.7435,1.7625,1.7626,1.7627,1.7727,1.7729,1.773,1.7726,1.7724,1.7722,1.772,1.7832,1.7837,1.7842,0,0,0,0,0,0,0,0,0,0,0,0,0,1.7523,1.7436,1.7625,1.7637,1.7639,1.7727,1.7729,1.7731,1.7726,1.7724,1.7722,1.772,1.783,1.7836,1.7843,1.7927,0,0,1.7863,1.7865,0,0,0,0,0,0,0,0,1.7518,1.753,1.7634,1.7636,1.7639,1.7711,1.7702,1.7797,1.7727,1.7693,1.7721,1.7719,1.7795,1.7804,1.7828,1.7932,1.7937,1.7863,1.7867,1.787,1.7872,0,0,0,0,0,0,0,1.7512,1.7526,1.7666,1.7635,1.7638,1.764,1.765,1.772,1.7755,1.7696,1.7696,1.7708,1.7796,1.7822,1.7831,1.7939,1.7863,1.7869,1.7873,1.7875,1.8119,1.8122,0,0,0,0,0,0,1.7502,1.7521,1.7662,1.7669,1.7571,1.7645,1.7657,1.769,1.7755,1.7762,1.771,1.7707,1.7812,1.7823,1.7835,1.7939,1.787,1.7876,1.788,1.8117,1.812,1.8123,0,0,0,0,0,0,1.7497,1.7514,1.7658,1.7595,1.7613,1.7651,1.7688,1.7694,1.772,1.7765,1.7772,1.7729,1.7811,1.7826,1.7904,1.7943,1.7879,1.7885,1.8114,1.8118,1.8121,1.8147,0,0,0,0,0,0,1.7492,1.7513,1.7543,1.7595,1.7616,1.7724,1.7691,1.7697,1.773,1.7728,1.7785,1.7793,1.781,1.7894,1.7911,1.7951,1.789,1.8111,1.8116,1.812,1.8143,1.8152,1.8159,0,0,0,0,0,1.7485,1.7548,1.7545,1.7562,1.7655,1.7726,1.7738,1.7755,1.7733,1.7766,1.7795,1.7791,1.7936,1.7902,1.7921,1.7963,1.8108,1.8114,1.812,1.814,1.815,1.8159,0,0,0,0,0,0,1.7501,1.7555,1.7552,1.7633,1.7675,1.7725,1.7766,1.7765,1.7816,1.7812,1.7833,1.7846,1.7925,1.7952,1.7914,1.805,1.802,1.8029,1.8029,1.8039,1.8046,1.8039,1.7895,0,0,0,0,0,1.7514,1.7565,1.761,1.7677,1.7698,1.7728,1.776,1.7769,1.7814,1.7832,1.7867,1.7913,1.7969,1.8005,1.8059,1.8147,1.8161,1.8186,1.8193,1.82,1.8208,1.8259,1.8271,1.8142,1.8142,1.8142,0,0,1.7542,1.7577,1.7608,1.7681,1.7714,1.7769,1.7743,1.7802,1.7843,1.7842,1.7918,1.7945,1.7997,1.8081,1.812,1.8107,1.8247,1.8207,1.8212,1.8217,1.8266,1.8278,1.8289,1.8146,1.8145,1.8144,0,0,1.7619,1.765,1.771,1.7744,1.7794,1.7814,1.7829,1.7879,1.7897,1.7973,1.7974,1.8024,1.812,1.8158,1.8189,1.8283,1.8282,1.83,1.8341,1.839,1.84,1.8409,1.8444,1.8456,1.8308,1.8308,1.8308,0,1.7648,1.7727,1.7742,1.7801,1.7834,1.7833,1.7896,1.7929,1.7995,1.8019,1.8002,1.8122,1.8158,1.8251,1.8274,1.8299,1.8318,1.8294,1.8397,1.8406,1.8415,1.8449,1.8461,1.831,1.831,1.831,1.8309,0,1.7761,1.7816,1.7859,1.7921,1.7959,1.8019,1.8045,1.8082,1.8089,1.8112,1.819,1.8233,1.8296,1.8318,1.8326,1.8414,1.8404,1.8392,1.8363,1.8429,1.8461,1.8474,1.8313,1.8312,1.8312,1.8311,0,0,1.7851,1.7921,1.7936,1.7965,1.8021,1.8065,1.8127,1.8187,1.8219,1.8265,1.8319,1.84,1.8389,1.8425,1.8437,1.848,1.8553,1.8463,1.8465,1.8479,1.8655,1.8664,1.8678,1.8552,1.8555,1.8557,1.865,0,1.7936,1.8042,1.8058,1.8153,1.8205,1.8206,1.826,1.8302,1.8325,1.8375,1.8402,1.8459,1.844,1.8462,1.8504,1.8535,1.8589,1.8528,1.8605,1.8607,1.8592,1.8694,1.8704,1.879,1.8663,1.8665,1.8667,0,1.8048,1.8096,1.8195,1.8245,1.8268,1.8316,1.8372,1.8419,1.8468,1.8482,1.8522,1.8529,1.8596,1.8563,1.8656,1.8614,1.8647,1.8667,1.867,1.8679,1.8641,1.8707,1.8818,1.8832,1.8686,1.8684,1.8683,0,1.8106,1.8195,1.8266,1.8291,1.835,1.8384,1.8411,1.8457,1.8492,1.8543,1.8566,1.8625,1.8657,1.8703,1.8727,1.87,1.8819,1.8787,1.8834,1.8834,1.886,1.8858,1.8979,1.8879,1.8879,1.8879,1.8878,0,1.8199,1.8261,1.8293,1.8337,1.8407,1.8425,1.8494,1.8521,1.8562,1.8613,1.8618,1.8666,1.8694,1.8747,1.8766,1.8841,1.8856,1.887,1.8875,1.887,1.8869,1.8892,1.8887,1.8882,1.8881,1.8881,1.888,0,1.8276,1.83,1.8378,1.8428,1.8442,1.8491,1.8535,1.8579,1.8602,1.8666,1.8683,1.872,1.8783,1.881,1.8889,1.8902,1.8988,1.8987,1.8971,1.8972,1.9018,1.9014,1.9159,1.918,1.9065,1.9066,1.9067,0,1.8334,1.8381,1.8435,1.8469,1.8496,1.855,1.8586,1.8607,1.8644,1.8703,1.8741,1.8803,1.8854,1.8955,1.8991,1.9051,1.9053,1.91,1.9062,1.9056,1.9055,1.9052,1.9058,1.9107,1.9108,1.9109,1.911,0,1.8435,1.8444,1.8495,1.855,1.8592,1.8637,1.8681,1.8709,1.8737,1.8779,1.8842,1.8882,1.8961,1.9024,1.9086,1.9117,1.9119,1.9121,1.9135,1.9132,1.912,1.9128,1.899,1.9118,1.9117,1.9116,1.9116,1.9116,1.8505,1.8547,1.8592,1.8648,1.8683,1.8725,1.8769,1.8797,1.8849,1.8914,1.8924,1.8992,1.9041,1.9124,1.9157,1.9212,1.9201,1.9221,1.9227,1.9232,1.9235,1.9111,1.9224,1.9224,1.9223,1.9223,1.9223,0,1.8607,1.8636,1.8687,1.8748,1.8793,1.8789,1.8838,1.8877,1.8936,1.898,1.903,1.9104,1.9165,1.9205,1.9267,1.9304,1.9307,1.932,1.9318,1.9325,1.9241,1.9222,1.9317,1.9317,1.9317,1.9316,1.9316,1.9316,1.8665,1.8737,1.8752,1.8842,1.8872,1.8937,1.8965,1.9004,1.904,1.9121,1.9171,1.9196,1.924,1.9305,1.9362,1.9373,1.9396,1.941,1.942,1.9341,1.9331,1.9322,1.9305,1.9414,1.9414,1.95,1.9501,1.9501]},{"header":{"parameterUnit":"m.s-1","parameterCategory":1,"la1":30.2991,"la2":30.254,"lo1":-89.0895,"lo2":-89.0444,"dy":0.0017,"dx":0.0017,"nx":28,"ny":28,"refTime":"2023-08-07T03:00:00:Z","depth":0,"parameterNumber":3,"parameterNumberName":"V-component_of_WINDS"},"data":[0,0,0,0,0,0,0,0,0,0,0,0,0,0,0,0,0,0,0,0,0,0,0,0,0,0,0,0,0,0,0,0,0,0,0,0,0,0,0,0,0,0,0,0,0,0,0,0,0,0,0,0,0,0,0,0,0,0,1.1957,1.1957,0,1.1989,1.1989,1.199,1.1991,1.199,1.199,1.199,1.2022,1.2023,1.2024,0,0,0,0,0,0,0,0,0,0,0,0,0,1.1894,1.1895,1.1957,1.1957,1.1958,1.1989,1.1989,1.199,1.1991,1.199,1.199,1.199,1.2021,1.2023,1.2024,0,0,0,0,0,0,0,0,0,0,0,0,0,1.1923,1.1895,1.1957,1.1962,1.1963,1.1989,1.1989,1.199,1.1991,1.199,1.199,1.1989,1.2021,1.2023,1.2024,1.2047,0,0,1.203,1.2031,0,0,0,0,0,0,0,0,1.1921,1.1925,1.1961,1.1962,1.1963,1.1985,1.1979,1.2009,1.1991,1.198,1.199,1.1989,1.201,1.2013,1.202,1.2049,1.205,1.203,1.2031,1.2032,1.2033,0,0,0,0,0,0,0,1.1919,1.1924,1.197,1.1961,1.1963,1.1962,1.1965,1.1985,1.1998,1.1981,1.1981,1.1985,1.201,1.2018,1.2021,1.2051,1.203,1.2032,1.2033,1.2034,1.2096,1.2096,0,0,0,0,0,0,1.1917,1.1922,1.1969,1.1971,1.194,1.1963,1.1967,1.1979,1.1998,1.2,1.1986,1.1985,1.2015,1.2019,1.2022,1.2047,1.2032,1.2034,1.2035,1.2095,1.2096,1.2096,0,0,0,0,0,0,1.1915,1.1921,1.1967,1.1947,1.1952,1.1965,1.1978,1.198,1.1987,1.2001,1.2003,1.1991,1.2015,1.2019,1.204,1.2049,1.2035,1.2036,1.2094,1.2095,1.2096,1.21,0,0,0,0,0,0,1.1913,1.192,1.193,1.1947,1.1954,1.1986,1.1978,1.1981,1.1991,1.199,1.2007,1.2009,1.2015,1.2037,1.2042,1.2051,1.2038,1.2094,1.2095,1.2096,1.2099,1.2101,1.2102,0,0,0,0,0,1.1911,1.1931,1.1931,1.1936,1.1966,1.1987,1.199,1.1997,1.1991,1.2,1.2009,1.2009,1.2047,1.2039,1.2045,1.2054,1.2093,1.2095,1.2096,1.2099,1.2101,1.2102,0,0,0,0,0,0,1.1915,1.1933,1.1933,1.1959,1.1971,1.1987,1.1999,1.1999,1.2013,1.2012,1.2019,1.2023,1.2043,1.2051,1.2042,1.2075,1.2069,1.2072,1.207,1.2072,1.2073,1.2071,1.2039,0,0,0,0,0,1.1919,1.1935,1.1949,1.197,1.1976,1.1986,1.1996,1.1999,1.2012,1.2017,1.2027,1.2039,1.2054,1.2063,1.2078,1.21,1.2103,1.2109,1.2111,1.2112,1.2114,1.2123,1.2126,1.2101,1.2101,1.21,0,0,1.1927,1.1939,1.1948,1.1971,1.1981,1.1996,1.1991,1.2008,1.2018,1.202,1.204,1.2047,1.2061,1.2082,1.2092,1.2089,1.2121,1.2114,1.2114,1.2116,1.2125,1.2127,1.2129,1.2101,1.2101,1.2101,0,0,1.1949,1.196,1.1977,1.1987,1.2002,1.2008,1.2012,1.2027,1.2032,1.2051,1.2052,1.2064,1.209,1.2099,1.2107,1.2128,1.2128,1.2133,1.2141,1.215,1.2152,1.2154,1.216,1.2162,1.2135,1.2135,1.2135,0,1.1957,1.198,1.1986,1.2002,1.2011,1.2012,1.2028,1.2037,1.2056,1.2062,1.2058,1.2088,1.2098,1.212,1.2124,1.2132,1.2135,1.2131,1.2152,1.2153,1.2155,1.2161,1.2163,1.2135,1.2135,1.2135,1.2135,0,1.1988,1.2003,1.2015,1.2032,1.2043,1.2059,1.2066,1.2075,1.2077,1.2083,1.2102,1.2113,1.2128,1.2133,1.2136,1.2155,1.2152,1.215,1.2144,1.2158,1.2163,1.2165,1.2135,1.2135,1.2135,1.2135,0,0,1.2014,1.2032,1.2037,1.2043,1.2058,1.207,1.2085,1.2099,1.2106,1.2118,1.213,1.215,1.2147,1.2156,1.2159,1.2168,1.2181,1.2164,1.2164,1.2165,1.22,1.22,1.2203,1.2181,1.2181,1.2182,1.2198,0,1.2036,1.2063,1.2068,1.2091,1.2104,1.2104,1.2117,1.2126,1.2132,1.2143,1.2148,1.2162,1.2158,1.2163,1.2171,1.2178,1.2188,1.2177,1.219,1.2191,1.2186,1.2206,1.2207,1.2222,1.22,1.22,1.2201,0,1.2066,1.2077,1.2102,1.2112,1.2118,1.2129,1.2141,1.2153,1.2163,1.2166,1.2174,1.2176,1.2189,1.2183,1.2201,1.2193,1.2199,1.2202,1.2203,1.2204,1.2196,1.2206,1.2227,1.2229,1.2204,1.2204,1.2204,0,1.208,1.2102,1.2118,1.2124,1.2137,1.2145,1.2151,1.216,1.2168,1.2178,1.2183,1.2195,1.2201,1.2209,1.2213,1.2209,1.223,1.2225,1.2232,1.2232,1.2236,1.2236,1.2257,1.2242,1.2242,1.2242,1.2242,0,1.2103,1.2117,1.2124,1.2134,1.2149,1.2154,1.2168,1.2174,1.2182,1.2192,1.2193,1.2203,1.2208,1.2217,1.2221,1.2234,1.2237,1.2239,1.2239,1.2238,1.2238,1.2242,1.224,1.2242,1.2242,1.2242,1.2242,0,1.2121,1.2127,1.2144,1.2155,1.2158,1.2168,1.2177,1.2186,1.219,1.2203,1.2206,1.2213,1.2224,1.2229,1.2243,1.2245,1.2259,1.2259,1.2256,1.2255,1.2262,1.2261,1.2286,1.2289,1.2272,1.2272,1.2273,0,1.2135,1.2146,1.2157,1.2163,1.2169,1.218,1.2187,1.2191,1.2198,1.2209,1.2216,1.2228,1.2237,1.2254,1.226,1.227,1.227,1.2278,1.2271,1.2269,1.2268,1.2267,1.2267,1.2279,1.2279,1.2279,1.2279,0,1.2158,1.216,1.217,1.2181,1.2189,1.2198,1.2206,1.2211,1.2216,1.2224,1.2235,1.2242,1.2255,1.2266,1.2275,1.228,1.228,1.2281,1.2283,1.2282,1.2278,1.2278,1.2257,1.228,1.228,1.228,1.228,1.228,1.2173,1.2182,1.219,1.2201,1.2207,1.2215,1.2223,1.2228,1.2237,1.2248,1.225,1.2261,1.2269,1.2282,1.2287,1.2295,1.2293,1.2296,1.2297,1.2297,1.2297,1.2277,1.2297,1.2297,1.2297,1.2297,1.2297,0,1.2195,1.22,1.221,1.2221,1.2229,1.2227,1.2236,1.2242,1.2252,1.226,1.2268,1.2279,1.2289,1.2295,1.2304,1.2309,1.2309,1.2311,1.231,1.2311,1.2299,1.2296,1.2311,1.2311,1.2311,1.2311,1.2311,1.2311,1.2207,1.222,1.2223,1.2239,1.2243,1.2254,1.2259,1.2265,1.227,1.2283,1.2291,1.2295,1.2301,1.231,1.2318,1.2319,1.2322,1.2324,1.2325,1.2314,1.2312,1.2311,1.2308,1.2325,1.2325,1.2336,1.2337,1.2337]}]]